Wind_Speed
36 37 37 38 36 37 35 28 25 40 43 38 48 32 25 27 23 26 32 24 18 15 14 13 10 7 4 1 1 1 1 3 4 6 7 8 9 11 11 12 14 15 15 13 13 12 11 11 11
41 37 36 39 38 36 31 21 40 35 35 45 42 33 28 30 37 33 34 24 22 19 16 17 13 9 8 7 5 4 2 1 3 5 6 7 9 10 11 12 13 15 16 15 15 14 12 11 11
44 41 38 39 44 43 20 29 35 31 48 43 39 41 39 41 40 29 23 24 22 20 19 19 15 10 9 10 9 6 6 3 0 4 5 7 8 10 10 11 13 15 16 15 14 15 15 14 13
44 45 44 43 40 44 44 40 47 49 49 45 46 38 43 47 34 29 26 24 23 22 21 21 17 12 10 11 12 9 9 6 2 2 4 5 6 7 9 10 12 14 14 13 13 15 15 15 14
44 44 47 50 45 42 46 53 50 50 40 46 45 41 47 51 39 32 29 29 26 25 25 22 20 15 12 11 11 12 11 10 6 4 3 4 5 7 7 10 12 13 14 13 12 14 15 16 18
46 45 49 51 50 42 50 49 54 53 42 43 49 46 45 51 42 35 32 31 28 28 26 25 26 19 14 12 13 13 13 12 9 8 6 4 4 5 6 8 11 14 16 12 11 12 14 15 17
47 49 51 51 45 30 55 50 49 58 44 28 46 54 43 54 45 40 37 34 32 33 30 28 27 23 20 16 14 16 16 17 15 13 11 9 7 5 6 7 10 13 12 11 10 9 11 13 16
36 48 54 50 48 39 35 51 50 50 51 45 55 40 49 58 44 46 43 38 36 36 35 34 33 33 24 21 18 18 19 19 20 18 14 11 10 7 8 8 11 12 11 13 10 10 11 14 16
31 36 47 50 40 38 36 36 51 49 48 56 51 45 56 44 44 48 49 45 41 39 39 36 35 33 30 26 22 21 22 20 20 19 18 14 12 11 10 10 11 13 15 15 13 11 12 14 14
33 34 31 39 38 38 39 36 46 50 52 48 53 43 44 43 47 48 52 50 46 42 42 41 41 38 33 29 28 26 24 22 20 20 19 18 15 15 14 14 13 15 16 18 18 17 16 16 17
34 33 28 29 38 37 35 48 39 50 51 47 50 45 52 42 44 48 54 54 52 46 48 45 44 41 36 33 31 31 26 25 23 23 22 21 19 19 18 17 17 16 17 18 20 20 19 19 20
37 34 33 33 34 39 52 51 51 51 49 49 53 59 65 44 49 50 54 57 54 52 52 50 49 44 38 37 37 35 31 28 27 27 26 25 24 23 22 19 21 19 20 21 20 20 21 21 22
37 33 36 39 43 47 49 53 53 61 54 53 45 50 51 53 53 52 54 57 57 56 54 53 52 45 41 38 39 40 35 34 31 31 30 30 30 26 25 21 24 23 21 22 24 23 24 24 23
34 37 37 40 39 44 52 45 50 57 57 60 50 45 43 55 57 57 57 61 59 59 57 57 52 48 44 54 55 52 37 42 38 32 34 34 32 30 27 27 27 26 25 27 27 24 26 26 26
34 34 35 38 37 40 43 47 44 49 57 62 59 46 42 57 62 62 63 64 62 64 62 65 68 60 55 42 49 42 42 42 37 41 40 37 35 34 32 31 31 30 30 30 32 31 26 29 28
33 35 35 34 35 39 42 42 41 46 53 59 57 52 47 52 66 68 66 68 67 67 65 66 68 64 64 60 63 52 49 52 48 45 45 47 41 38 37 34 35 35 31 31 36 32 39 36 27
36 34 33 28 40 38 38 36 34 46 46 48 47 50 50 50 56 70 70 71 72 71 70 68 62 61 56 61 58 58 55 46 48 48 51 44 39 38 44 41 33 37 28 30 39 36 38 35 26
21 27 34 26 31 37 37 34 34 44 39 39 42 45 47 48 43 71 73 74 74 73 73 69 65 67 69 70 64 50 56 53 46 47 50 42 39 42 43 40 31 30 31 33 32 31 30 22 34
42 42 30 21 29 45 36 35 34 39 41 36 37 41 44 47 49 61 78 77 78 76 79 70 71 72 71 69 75 62 61 61 56 58 51 50 41 44 44 42 31 28 35 28 29 26 31 27 35
32 39 42 41 42 48 43 40 38 39 37 37 35 36 41 47 46 48 77 79 77 81 77 83 83 81 84 68 71 59 67 67 66 58 54 57 44 49 42 29 38 32 34 21 35 30 32 39 41
31 33 34 32 39 49 41 42 41 39 41 40 38 39 40 43 46 45 39 80 77 82 77 74 70 79 73 76 68 70 71 69 63 59 45 56 41 42 47 41 35 36 30 31 40 30 33 39 43
30 23 32 40 39 35 35 38 29 40 45 44 43 42 41 41 40 42 44 46 75 77 86 80 65 62 70 84 69 64 69 69 61 65 47 51 49 41 48 50 45 49 32 29 31 37 42 43 42
32 32 39 34 35 35 33 36 31 24 36 39 41 44 44 44 43 44 45 48 50 64 80 74 77 67 64 65 64 75 61 61 55 46 52 52 55 50 52 45 55 53 30 32 41 46 40 45 36
34 35 35 34 30 33 29 27 20 22 29 35 36 38 40 43 44 46 48 49 51 51 53 82 76 79 73 69 64 65 70 60 56 58 56 57 52 53 56 54 55 44 40 35 42 43 41 48 34
29 32 25 21 22 25 20 24 22 28 36 27 30 32 34 38 41 42 43 47 50 53 54 54 58 61 78 79 69 71 67 70 67 63 63 59 56 57 57 49 50 44 41 47 48 50 43 49 37
25 17 22 22 22 16 18 22 21 28 39 29 31 32 33 35 37 39 40 43 45 49 52 54 59 59 58 71 85 74 74 75 64 70 67 65 64 63 61 54 46 46 41 52 51 53 50 45 40
23 30 26 31 32 36 25 22 26 30 30 30 31 33 36 37 38 39 40 42 45 47 47 49 52 58 61 62 61 62 65 79 81 76 70 71 65 60 60 61 54 55 55 56 57 44 43 42 41
31 30 32 27 27 26 24 21 24 29 30 38 34 32 34 37 40 42 42 42 46 49 53 55 53 54 57 60 64 65 64 62 65 72 75 71 69 67 68 69 64 64 63 59 57 48 41 47 43
28 30 33 32 28 20 24 16 29 17 24 34 29 32 34 36 39 41 43 45 46 49 53 56 60 61 61 60 60 63 65 64 63 62 61 62 63 59 57 58 57 56 52 48 46 45 46 46 43
32 31 33 31 31 32 37 37 19 22 27 36 32 31 36 37 37 40 43 46 50 55 57 58 60 61 65 67 67 65 63 63 65 64 62 60 59 58 55 53 51 48 46 43 41 44 41 40 38
Wind_Direction
234 228 230 232 229 224 212 214 218 227 228 228 221 224 219 193 187 211 225 217 205 207 198 190 169 189 194 279 153 83 137 130 99 84 62 49 43 39 37 40 42 41 31 26 21 15 8 4 6
236 232 230 232 226 226 220 208 241 234 232 224 228 230 226 224 216 217 223 208 206 204 193 190 180 201 219 246 294 282 231 168 88 68 46 36 42 40 43 37 36 30 21 15 10 7 4 356 358
237 235 234 235 230 221 208 220 234 227 233 225 223 222 219 216 223 222 224 210 212 209 210 200 193 198 228 241 248 268 265 253 18 52 39 20 21 25 29 28 18 20 20 13 8 6 4 1 359
238 239 235 235 236 230 208 211 220 224 232 227 224 222 226 232 232 221 217 213 212 219 212 213 202 204 229 241 243 242 249 260 274 352 358 356 1 8 8 12 9 12 13 14 14 9 8 7 1
241 238 239 237 236 239 226 223 229 223 228 228 226 222 222 228 229 223 217 214 216 216 222 219 223 215 225 244 247 248 252 250 245 283 291 316 337 337 356 358 360 360 357 1 16 11 9 7 7
242 237 237 237 238 239 239 232 228 229 234 233 233 225 222 227 223 224 218 218 219 217 223 218 228 219 225 243 257 251 248 252 258 267 276 298 326 328 343 355 354 351 346 346 5 15 10 6 7
243 240 241 236 236 241 245 242 233 227 227 229 232 229 226 227 217 217 218 216 220 225 227 229 237 228 230 236 253 256 255 260 273 275 274 288 297 314 318 330 340 344 341 338 343 3 11 1 3
248 242 241 238 233 234 257 249 246 236 225 225 232 224 228 235 217 214 217 214 216 224 229 236 239 243 234 241 249 256 261 261 268 268 267 273 284 292 296 311 323 329 323 330 331 340 353 353 354
248 249 246 239 237 239 238 259 247 248 239 227 233 232 235 235 223 215 216 214 214 219 224 227 232 237 238 239 245 250 256 258 263 262 265 270 271 276 279 288 304 315 317 323 318 327 338 338 339
243 253 258 240 241 241 242 247 263 244 242 242 235 228 237 234 225 216 213 216 213 217 221 225 230 234 240 234 240 246 250 254 258 254 261 266 268 272 276 283 292 299 309 319 316 319 323 322 328
246 254 258 250 236 233 242 244 245 257 243 244 238 230 231 233 232 218 218 219 219 217 217 223 223 233 230 237 240 239 244 248 250 254 257 262 262 267 271 279 282 287 296 309 310 311 312 317 322
245 244 246 245 223 238 234 237 231 249 249 245 247 239 234 229 228 222 215 217 217 220 220 224 224 225 222 238 240 235 239 241 245 249 254 258 255 259 264 269 273 277 290 301 301 300 304 311 316
249 247 246 245 242 239 243 247 245 247 251 250 246 246 242 229 227 219 215 215 214 218 223 221 222 218 222 228 230 230 232 235 233 238 246 250 250 253 259 259 268 272 279 290 293 297 304 310 318
253 246 247 249 247 248 248 248 243 243 246 248 241 242 252 227 225 217 212 213 213 216 221 222 212 214 220 231 217 218 221 227 219 228 244 243 247 249 252 254 263 269 275 285 290 294 301 312 322
251 255 250 251 251 250 253 250 244 245 244 248 241 244 255 233 224 217 211 214 216 216 220 226 204 210 232 218 222 224 221 227 226 228 235 237 236 242 247 250 261 262 271 283 301 296 305 318 307
254 255 255 255 253 252 250 252 252 251 245 245 243 245 252 241 221 218 214 214 214 217 222 227 229 204 210 223 219 214 222 221 219 227 231 235 236 246 244 258 255 266 272 293 292 283 320 297 304
253 254 258 257 254 253 253 255 253 249 249 248 247 245 244 253 234 221 216 214 215 217 221 227 236 211 208 223 227 221 226 223 220 233 239 239 243 248 252 259 270 269 284 303 295 298 315 312 305
254 264 253 235 266 249 252 250 249 255 252 250 245 242 240 246 256 223 221 216 224 214 220 225 229 235 215 213 219 225 232 227 225 245 237 241 243 249 262 255 260 261 280 282 302 320 315 300 318
239 238 227 239 241 257 252 251 249 253 255 249 246 241 241 243 249 233 221 218 219 223 219 224 227 231 237 233 220 221 227 235 226 239 239 243 248 254 259 252 249 272 288 271 298 306 318 288 318
252 245 248 250 253 255 253 250 249 250 254 254 247 243 236 237 244 249 223 221 221 223 225 225 226 230 235 236 235 232 230 228 245 232 232 247 245 249 266 263 249 268 264 267 307 311 315 311 305
253 249 246 247 247 254 259 255 253 253 249 248 247 242 239 238 240 243 249 224 225 228 232 237 228 229 229 233 236 235 249 243 240 244 249 251 243 259 259 276 269 264 266 283 305 308 302 303 300
250 253 250 247 253 259 255 254 255 254 251 246 246 244 243 238 240 242 243 244 233 229 229 235 241 240 234 239 236 244 239 245 249 251 253 244 260 264 269 270 265 264 284 300 291 300 299 298 294
244 245 250 255 255 256 251 259 248 247 259 252 249 246 245 244 240 239 238 241 249 238 236 235 235 240 247 243 245 243 242 247 253 253 255 258 266 270 258 256 280 267 267 289 287 296 286 294 293
252 245 252 253 260 259 260 256 254 250 259 256 248 247 246 245 241 240 239 239 239 241 243 241 245 235 237 242 243 245 249 250 244 246 252 254 258 263 268 265 278 278 276 277 287 287 279 292 297
264 258 261 265 264 266 249 235 209 222 236 241 253 246 248 248 248 245 242 241 240 241 240 241 246 249 238 237 238 240 245 247 246 250 255 254 258 260 264 265 267 271 284 283 287 282 282 287 291
265 233 231 241 226 231 239 259 263 232 246 250 253 253 248 249 251 252 252 247 244 244 243 241 242 245 247 241 234 233 239 244 242 245 247 249 252 256 261 265 263 271 269 269 280 284 260 279 282
256 235 232 235 221 223 224 243 262 249 251 249 247 248 253 254 253 254 251 252 254 252 248 246 243 243 245 247 247 245 247 243 239 238 240 247 250 253 260 265 265 271 271 274 280 283 285 274 281
256 247 252 256 257 243 241 249 253 249 263 255 248 250 251 254 258 259 256 253 253 253 255 254 251 249 244 244 246 245 246 247 243 244 245 242 250 255 258 261 264 268 275 272 275 275 271 277 278
260 252 239 245 247 245 222 234 237 220 215 247 256 255 253 252 256 261 264 266 262 258 254 252 254 254 252 249 245 246 246 245 245 245 245 245 246 250 253 256 258 263 266 267 268 267 270 273 275
247 244 242 237 252 258 246 230 231 226 244 258 263 262 262 264 263 265 266 267 270 270 266 261 257 253 252 251 250 247 245 245 246 245 244 245 247 247 248 251 253 257 259 263 266 267 270 267 273
Height
5851 5853 5857 5861 5868 5869 5874 5882 5883 5877 5880 5883 5878 5889 5896 5897 5897 5902 5894 5897 5898 5900 5899 5900 5902 5903 5904 5904 5903 5902 5900 5899 5898 5898 5898 5898 5897 5896 5895 5894 5893 5892 5891 5890 5890 5889 5888 5886 5884
5845 5848 5853 5854 5860 5865 5873 5880 5872 5877 5869 5872 5878 5886 5891 5893 5889 5890 5890 5896 5896 5897 5898 5898 5898 5901 5902 5903 5903 5902 5900 5899 5897 5897 5897 5897 5896 5895 5894 5894 5893 5892 5891 5890 5890 5888 5887 5885 5884
5839 5843 5847 5847 5851 5856 5870 5869 5864 5867 5859 5870 5876 5878 5878 5881 5882 5890 5891 5894 5896 5897 5896 5896 5897 5898 5900 5901 5901 5902 5901 5899 5898 5896 5896 5897 5896 5895 5894 5893 5893 5891 5891 5891 5889 5887 5886 5885 5883
5833 5836 5840 5842 5846 5852 5854 5847 5849 5855 5855 5863 5866 5877 5875 5869 5882 5885 5890 5891 5893 5895 5896 5894 5895 5896 5897 5898 5899 5899 5899 5899 5898 5896 5896 5896 5896 5894 5894 5893 5893 5892 5891 5890 5888 5887 5886 5885 5883
5825 5830 5832 5835 5840 5843 5847 5843 5846 5850 5851 5856 5859 5867 5868 5864 5876 5881 5886 5887 5890 5891 5894 5893 5893 5893 5895 5896 5896 5897 5897 5897 5895 5895 5895 5895 5894 5895 5893 5894 5893 5892 5892 5890 5888 5887 5886 5885 5883
5816 5821 5824 5828 5833 5836 5837 5837 5841 5846 5849 5851 5854 5857 5861 5860 5870 5878 5881 5884 5886 5887 5890 5891 5891 5891 5892 5893 5894 5894 5894 5894 5894 5894 5894 5894 5893 5894 5893 5892 5893 5893 5892 5891 5889 5887 5886 5885 5883
5807 5812 5816 5821 5826 5833 5827 5832 5834 5837 5841 5846 5843 5846 5856 5846 5863 5870 5875 5878 5882 5883 5885 5888 5888 5889 5889 5890 5890 5891 5892 5892 5893 5892 5893 5893 5893 5891 5892 5892 5892 5891 5891 5890 5889 5886 5884 5884 5881
5801 5804 5807 5812 5819 5825 5824 5822 5825 5825 5830 5834 5830 5847 5845 5838 5859 5864 5867 5872 5875 5878 5880 5882 5884 5886 5886 5887 5888 5888 5888 5889 5890 5891 5891 5890 5891 5889 5890 5890 5891 5890 5889 5888 5886 5885 5883 5882 5881
5794 5795 5796 5804 5812 5819 5823 5817 5815 5818 5819 5822 5826 5834 5834 5847 5853 5857 5862 5865 5869 5871 5874 5876 5878 5881 5882 5883 5884 5885 5885 5886 5886 5888 5888 5888 5888 5887 5887 5886 5887 5887 5887 5885 5884 5882 5881 5880 5878
5786 5787 5792 5799 5808 5813 5816 5816 5809 5811 5813 5818 5822 5826 5829 5836 5842 5848 5853 5855 5860 5864 5868 5869 5872 5874 5877 5879 5881 5882 5882 5883 5883 5884 5885 5885 5886 5885 5885 5884 5883 5883 5884 5883 5882 5882 5879 5877 5876
5781 5781 5786 5788 5796 5804 5807 5804 5807 5800 5805 5813 5812 5817 5818 5830 5835 5841 5844 5848 5854 5858 5860 5862 5865 5868 5871 5873 5876 5877 5878 5879 5880 5881 5881 5881 5882 5882 5882 5882 5881 5880 5879 5879 5879 5878 5877 5875 5872
5772 5776 5778 5781 5785 5790 5790 5792 5794 5792 5800 5800 5804 5806 5809 5821 5824 5830 5834 5836 5844 5849 5853 5854 5858 5861 5864 5867 5871 5872 5873 5875 5875 5876 5877 5878 5877 5877 5878 5878 5878 5877 5877 5876 5876 5874 5873 5873 5870
5764 5770 5770 5770 5772 5773 5775 5778 5784 5783 5790 5792 5800 5801 5808 5811 5816 5821 5826 5829 5834 5840 5845 5847 5851 5854 5857 5860 5864 5865 5867 5870 5870 5871 5872 5872 5873 5873 5874 5875 5875 5874 5873 5873 5872 5871 5871 5871 5868
5757 5759 5761 5762 5765 5765 5765 5769 5772 5777 5781 5783 5790 5794 5796 5800 5806 5812 5817 5820 5825 5830 5835 5837 5842 5847 5850 5851 5853 5855 5859 5862 5863 5865 5867 5867 5868 5869 5871 5870 5871 5871 5871 5870 5870 5869 5868 5868 5866
5750 5752 5752 5753 5756 5756 5757 5759 5763 5766 5769 5772 5779 5787 5786 5788 5796 5800 5803 5809 5815 5819 5822 5823 5821 5831 5837 5836 5845 5849 5852 5855 5857 5858 5860 5862 5863 5865 5865 5865 5867 5867 5867 5867 5867 5866 5866 5864 5863
5743 5744 5744 5747 5747 5748 5747 5752 5757 5755 5757 5760 5769 5776 5777 5778 5783 5787 5793 5799 5804 5809 5813 5815 5812 5817 5821 5828 5832 5838 5843 5845 5847 5850 5853 5854 5857 5859 5859 5860 5861 5863 5864 5865 5862 5862 5862 5858 5856
5736 5738 5739 5740 5736 5740 5740 5745 5746 5744 5748 5752 5757 5763 5766 5768 5772 5777 5783 5787 5792 5798 5801 5807 5807 5804 5810 5817 5819 5828 5833 5836 5838 5843 5848 5851 5852 5853 5853 5855 5858 5858 5861 5860 5858 5860 5857 5854 5854
5734 5733 5732 5733 5727 5731 5733 5737 5737 5737 5742 5742 5746 5750 5753 5756 5760 5764 5770 5775 5780 5784 5791 5797 5800 5801 5797 5803 5808 5813 5821 5825 5831 5838 5842 5843 5845 5848 5848 5851 5854 5854 5855 5854 5855 5853 5853 5851 5851
5718 5719 5722 5724 5724 5720 5726 5727 5730 5729 5732 5735 5737 5740 5742 5745 5747 5750 5756 5765 5770 5775 5778 5784 5790 5792 5796 5793 5804 5807 5812 5818 5821 5827 5834 5835 5838 5840 5843 5843 5846 5847 5847 5849 5848 5849 5848 5844 5847
5710 5711 5713 5714 5713 5710 5715 5718 5721 5722 5725 5727 5729 5730 5733 5733 5735 5741 5747 5754 5757 5765 5770 5772 5776 5780 5785 5784 5791 5800 5806 5810 5812 5815 5822 5827 5829 5833 5835 5837 5838 5839 5841 5842 5843 5839 5842 5842 5840
5701 5702 5703 5705 5703 5701 5707 5709 5712 5714 5714 5717 5720 5722 5724 5726 5729 5734 5738 5745 5748 5752 5757 5758 5763 5771 5777 5783 5786 5792 5794 5801 5805 5812 5815 5816 5819 5822 5827 5828 5827 5830 5832 5830 5832 5834 5837 5836 5835
5692 5694 5693 5693 5694 5698 5697 5699 5702 5702 5703 5707 5710 5714 5717 5720 5723 5725 5729 5734 5741 5741 5749 5752 5754 5759 5766 5774 5775 5779 5784 5791 5795 5798 5802 5806 5811 5813 5819 5819 5824 5824 5827 5820 5825 5828 5828 5830 5827
5682 5682 5682 5686 5687 5688 5691 5690 5696 5697 5693 5696 5701 5704 5708 5711 5715 5718 5722 5725 5729 5731 5734 5739 5744 5748 5752 5758 5760 5768 5769 5777 5784 5786 5794 5798 5803 5806 5807 5814 5817 5815 5812 5813 5820 5819 5822 5822 5823
5673 5675 5675 5677 5679 5679 5683 5686 5691 5691 5688 5687 5691 5695 5698 5700 5705 5708 5713 5717 5719 5723 5725 5729 5733 5737 5743 5746 5751 5757 5762 5767 5772 5779 5784 5791 5795 5798 5800 5807 5808 5808 5810 5809 5810 5812 5816 5817 5814
5666 5668 5672 5677 5677 5677 5678 5680 5687 5681 5678 5681 5683 5687 5689 5691 5693 5697 5701 5704 5708 5710 5714 5719 5721 5724 5728 5733 5740 5745 5750 5756 5761 5768 5774 5779 5785 5787 5791 5797 5799 5799 5799 5798 5802 5806 5807 5808 5808
5660 5662 5665 5667 5673 5677 5667 5671 5673 5674 5669 5675 5676 5677 5681 5683 5684 5686 5689 5692 5695 5698 5702 5706 5709 5712 5716 5721 5725 5731 5738 5745 5750 5758 5763 5768 5774 5777 5779 5785 5787 5788 5792 5794 5797 5797 5795 5798 5802
5657 5655 5657 5656 5660 5660 5663 5664 5661 5665 5664 5665 5667 5669 5670 5672 5675 5677 5679 5680 5681 5684 5690 5693 5696 5700 5703 5707 5713 5719 5727 5733 5738 5745 5751 5755 5760 5766 5770 5768 5779 5781 5783 5786 5788 5790 5789 5791 5794
5645 5649 5650 5650 5651 5653 5658 5661 5659 5654 5655 5653 5658 5659 5661 5662 5662 5662 5665 5669 5671 5674 5674 5677 5683 5686 5690 5695 5698 5705 5710 5718 5725 5733 5739 5745 5751 5755 5760 5762 5768 5773 5776 5778 5781 5783 5782 5784 5785
5640 5639 5641 5643 5645 5645 5648 5652 5646 5649 5646 5644 5649 5648 5651 5653 5653 5652 5652 5652 5656 5660 5662 5664 5666 5669 5675 5680 5685 5688 5695 5702 5709 5716 5724 5731 5739 5745 5750 5754 5759 5763 5766 5768 5772 5774 5774 5775 5775
5630 5631 5633 5634 5636 5635 5637 5640 5639 5641 5638 5638 5640 5639 5639 5640 5642 5642 5642 5642 5641 5639 5643 5648 5652 5655 5658 5661 5667 5673 5679 5685 5692 5700 5708 5717 5724 5732 5738 5742 5748 5753 5756 5759 5762 5765 5765 5768 5767